CDC5927 ZSHC-ZYTL

Flight info

Callsign CDC5927
Flight time 1h 45m
Altitude 31100
Route SUPAR B221 XDX W174 FD W172 IGDEG W173 NIXEP
Aircraft A21N/M-SDE2E3FGHIRWXY/LB1

Departure

Time 2026-04-22 06:19
Airport Hangzhou Xiaoshan International Airport (ZSHC)

Arrival

Time 2026-04-22 08:04
Airport Dalian Zhoushuizi International Airport (ZYTL)
Time Latitude Longitude Altitude Speed Heading
2026-04-22 05:52 30.23977 120.42703 37 ft 0 kts 65°
2026-04-22 06:06 30.23971 120.42689 37 ft 4 kts 58°
2026-04-22 06:06 30.23954 120.42667 37 ft 4 kts 26°
2026-04-22 06:06 30.23931 120.42664 37 ft 4 kts 337°
2026-04-22 06:06 30.23926 120.42666 37 ft 0 kts 332°
2026-04-22 06:10 30.23948 120.42653 37 ft 11 kts 332°
2026-04-22 06:10 30.24043 120.42596 37 ft 17 kts 333°
2026-04-22 06:11 30.24118 120.42554 37 ft 6 kts 333°
2026-04-22 06:11 30.24166 120.42518 37 ft 10 kts 312°
2026-04-22 06:11 30.24224 120.42454 37 ft 14 kts 315°
2026-04-22 06:11 30.24289 120.42410 37 ft 0 kts 357°
2026-04-22 06:12 30.24304 120.42412 37 ft 4 kts 11°
2026-04-22 06:12 30.24337 120.42438 37 ft 8 kts 49°
2026-04-22 06:12 30.24369 120.42507 37 ft 12 kts 63°
2026-04-22 06:12 30.24412 120.42605 37 ft 15 kts 63°
2026-04-22 06:13 30.24468 120.42728 37 ft 19 kts 62°
2026-04-22 06:13 30.24520 120.42846 37 ft 15 kts 62°
2026-04-22 06:13 30.24555 120.42923 37 ft 18 kts 62°
2026-04-22 06:13 30.24615 120.43063 37 ft 21 kts 65°
2026-04-22 06:14 30.24681 120.43213 37 ft 14 kts 62°
2026-04-22 06:14 30.24750 120.43361 38 ft 12 kts 62°
2026-04-22 06:14 30.24791 120.43457 38 ft 15 kts 63°
2026-04-22 06:14 30.24846 120.43579 37 ft 19 kts 62°
2026-04-22 06:15 30.24912 120.43724 38 ft 22 kts 62°
2026-04-22 06:15 30.24953 120.43829 37 ft 11 kts 66°
2026-04-22 06:15 30.24984 120.43884 37 ft 14 kts 61°
2026-04-22 06:15 30.25031 120.43995 37 ft 12 kts 64°
2026-04-22 06:16 30.25040 120.44015 37 ft 4 kts 59°
2026-04-22 06:16 30.25091 120.44028 38 ft 10 kts 336°
2026-04-22 06:16 30.25166 120.43992 38 ft 11 kts 334°
2026-04-22 06:16 30.25181 120.43981 38 ft 4 kts 323°
2026-04-22 06:17 30.25207 120.43944 38 ft 8 kts 289°
2026-04-22 06:17 30.25176 120.43887 37 ft 0 kts 245°
2026-04-22 06:18 30.25169 120.43870 37 ft 6 kts 245°
2026-04-22 06:18 30.25094 120.43698 36 ft 57 kts 243°
2026-04-22 06:18 30.24806 120.43054 38 ft 120 kts 243°
2026-04-22 06:18 30.24337 120.42000 43 ft 170 kts 244°
2026-04-22 06:19 30.23600 120.40391 742 ft 174 kts 243°
2026-04-22 06:19 30.23197 120.39577 1128 ft 179 kts 244°
2026-04-22 06:19 30.22345 120.37862 1888 ft 188 kts 251°
2026-04-22 06:19 30.21995 120.36929 2239 ft 195 kts 251°
2026-04-22 06:20 30.21175 120.34947 3000 ft 217 kts 247°
2026-04-22 06:20 30.20700 120.33852 3275 ft 235 kts 246°
2026-04-22 06:20 30.19928 120.32092 3732 ft 254 kts 245°
2026-04-22 06:20 30.19108 120.30246 4406 ft 260 kts 245°
2026-04-22 06:21 30.18276 120.28380 4775 ft 261 kts 244°
2026-04-22 06:21 30.17176 120.25914 5269 ft 260 kts 244°
2026-04-22 06:21 30.16625 120.24679 5769 ft 260 kts 244°
2026-04-22 06:21 30.15735 120.22869 6086 ft 259 kts 235°
2026-04-22 06:22 30.14427 120.21445 6354 ft 262 kts 214°
2026-04-22 06:22 30.12697 120.20732 6575 ft 270 kts 191°
2026-04-22 06:22 30.10805 120.20904 6822 ft 279 kts 167°
2026-04-22 06:22 30.09011 120.21827 7062 ft 285 kts 156°
2026-04-22 06:23 30.07258 120.22921 7305 ft 287 kts 156°
2026-04-22 06:23 30.05531 120.23985 7540 ft 288 kts 157°
2026-04-22 06:23 30.03750 120.25060 7780 ft 290 kts 156°
2026-04-22 06:23 30.02122 120.26485 8006 ft 300 kts 134°
2026-04-22 06:24 30.01127 120.31118 8505 ft 314 kts 76°
2026-04-22 06:24 30.01973 120.33435 8770 ft 315 kts 59°
2026-04-22 06:24 30.03050 120.35646 9026 ft 317 kts 58°
2026-04-22 06:25 30.04127 120.37873 9291 ft 320 kts 59°
2026-04-22 06:25 30.05186 120.40146 9558 ft 323 kts 60°
2026-04-22 06:25 30.06231 120.42443 9803 ft 324 kts 60°
2026-04-22 06:25 30.07272 120.44759 10035 ft 325 kts 60°
2026-04-22 06:26 30.08336 120.47128 10287 ft 348 kts 60°
2026-04-22 06:26 30.09483 120.49697 10551 ft 370 kts 61°
2026-04-22 06:26 30.10681 120.52397 10819 ft 391 kts 62°
2026-04-22 06:26 30.11656 120.55392 11071 ft 406 kts 77°
2026-04-22 06:27 30.11847 120.58656 11319 ft 409 kts 96°
2026-04-22 06:27 30.11189 120.61830 11566 ft 407 kts 114°
2026-04-22 06:27 30.10016 120.64803 11821 ft 407 kts 118°
2026-04-22 06:27 30.08813 120.67765 12068 ft 409 kts 117°
2026-04-22 06:28 30.07656 120.70782 12320 ft 411 kts 115°
2026-04-22 06:28 30.06541 120.73832 12570 ft 413 kts 115°
2026-04-22 06:28 30.05459 120.76862 12817 ft 415 kts 114°
2026-04-22 06:28 30.04385 120.79961 13062 ft 418 kts 111°
2026-04-22 06:29 30.03739 120.83236 13309 ft 422 kts 95°
2026-04-22 06:29 30.03893 120.86618 13564 ft 423 kts 77°
2026-04-22 06:29 30.04866 120.89806 13796 ft 421 kts 59°
2026-04-22 06:29 30.06493 120.92601 14038 ft 420 kts 50°
2026-04-22 06:30 30.08277 120.95282 14279 ft 421 kts 49°
2026-04-22 06:30 30.10063 120.97972 14500 ft 424 kts 50°
2026-04-22 06:30 30.11850 121.00702 14735 ft 427 kts 50°
2026-04-22 06:30 30.13633 121.03446 14952 ft 428 kts 50°
2026-04-22 06:31 30.15393 121.06172 15169 ft 430 kts 50°
2026-04-22 06:31 30.17184 121.08952 15398 ft 432 kts 50°
2026-04-22 06:31 30.18980 121.11744 15633 ft 434 kts 50°
2026-04-22 06:31 30.20781 121.14551 15879 ft 435 kts 51°
2026-04-22 06:32 30.22586 121.17368 16121 ft 436 kts 51°
2026-04-22 06:32 30.24395 121.20190 16359 ft 438 kts 51°
2026-04-22 06:32 30.26173 121.23069 16608 ft 441 kts 54°
2026-04-22 06:32 30.27865 121.26040 16851 ft 444 kts 54°
2026-04-22 06:33 30.29538 121.29004 17101 ft 447 kts 54°
2026-04-22 06:33 30.31236 121.32019 17352 ft 449 kts 54°
2026-04-22 06:33 30.32946 121.35052 17602 ft 451 kts 54°
2026-04-22 06:33 30.34668 121.38105 17854 ft 453 kts 54°
2026-04-22 06:34 30.36397 121.41166 18110 ft 455 kts 54°
2026-04-22 06:34 30.38136 121.44221 18350 ft 455 kts 54°
2026-04-22 06:34 30.39884 121.47280 18565 ft 456 kts 54°
2026-04-22 06:34 30.41637 121.50354 18797 ft 458 kts 54°
2026-04-22 06:35 30.43398 121.53444 19020 ft 460 kts 54°
2026-04-22 06:35 30.45163 121.56547 19245 ft 462 kts 54°
2026-04-22 06:35 30.46910 121.59621 19476 ft 464 kts 54°
2026-04-22 06:35 30.48687 121.62754 19701 ft 466 kts 54°
2026-04-22 06:36 30.50470 121.65898 19940 ft 468 kts 54°
2026-04-22 06:36 30.52260 121.69056 20172 ft 470 kts 54°
2026-04-22 06:36 30.54057 121.72229 20431 ft 469 kts 54°
2026-04-22 06:36 30.55848 121.75395 20680 ft 470 kts 54°
2026-04-22 06:37 30.57651 121.78584 20918 ft 473 kts 54°
2026-04-22 06:37 30.59433 121.81733 21148 ft 473 kts 55°
2026-04-22 06:37 30.61238 121.84930 21389 ft 475 kts 55°
2026-04-22 06:37 30.63044 121.88130 21640 ft 477 kts 55°
2026-04-22 06:38 30.64866 121.91364 21886 ft 479 kts 55°
2026-04-22 06:38 30.66695 121.94612 22145 ft 482 kts 55°
2026-04-22 06:38 30.68526 121.97870 22402 ft 484 kts 55°
2026-04-22 06:38 30.70386 122.01183 22673 ft 488 kts 55°
2026-04-22 06:39 30.72244 122.04495 22930 ft 491 kts 55°
2026-04-22 06:39 30.74114 122.07829 23191 ft 493 kts 55°
2026-04-22 06:39 30.75958 122.11118 23437 ft 493 kts 55°
2026-04-22 06:39 30.77996 122.14319 23647 ft 493 kts 46°
2026-04-22 06:40 30.80476 122.17054 23872 ft 490 kts 34°
2026-04-22 06:40 30.83342 122.19154 24096 ft 485 kts 22°
2026-04-22 06:40 30.86468 122.20570 24321 ft 481 kts 12°
2026-04-22 06:40 30.89690 122.21642 24565 ft 484 kts 10°
2026-04-22 06:41 30.92942 122.22682 24797 ft 486 kts 10°
2026-04-22 06:41 30.96208 122.23746 25023 ft 489 kts 11°
2026-04-22 06:41 30.99483 122.24848 25250 ft 492 kts 12°
2026-04-22 06:41 31.02678 122.26195 25479 ft 497 kts 16°
2026-04-22 06:42 31.05909 122.27638 25718 ft 499 kts 16°
2026-04-22 06:42 31.09152 122.29084 25970 ft 501 kts 16°
2026-04-22 06:42 31.12426 122.30539 26206 ft 505 kts 15°
2026-04-22 06:42 31.15714 122.32000 26450 ft 507 kts 15°
2026-04-22 06:43 31.19023 122.33471 26692 ft 509 kts 15°
2026-04-22 06:43 31.22328 122.34941 26927 ft 508 kts 16°
2026-04-22 06:43 31.25630 122.36411 27170 ft 508 kts 15°
2026-04-22 06:43 31.28893 122.37861 27415 ft 508 kts 15°
2026-04-22 06:44 31.32194 122.39337 27689 ft 508 kts 15°
2026-04-22 06:44 31.35497 122.40808 27942 ft 508 kts 15°
2026-04-22 06:44 31.38798 122.42258 28199 ft 507 kts 14°
2026-04-22 06:44 31.42177 122.43307 28450 ft 498 kts
2026-04-22 06:45 31.45589 122.43598 28706 ft 486 kts 351°
2026-04-22 06:45 31.48894 122.43120 28977 ft 473 kts 339°
2026-04-22 06:45 31.51994 122.41955 29251 ft 463 kts 331°
2026-04-22 06:45 31.54965 122.40559 29550 ft 458 kts 330°
2026-04-22 06:46 31.57871 122.39186 29817 ft 456 kts 330°
2026-04-22 06:46 31.60824 122.37813 30060 ft 456 kts 331°
2026-04-22 06:46 31.63781 122.36459 30291 ft 456 kts 331°
2026-04-22 06:46 31.66737 122.35108 30523 ft 456 kts 331°
2026-04-22 06:47 31.69691 122.33764 30767 ft 455 kts 331°
2026-04-22 06:47 31.72630 122.32424 30910 ft 453 kts 331°
2026-04-22 06:47 31.75551 122.31062 30925 ft 451 kts 330°
2026-04-22 06:48 31.81250 122.28135 30922 ft 449 kts 329°
2026-04-22 06:48 31.87094 122.25432 30907 ft 452 kts 331°
2026-04-22 06:49 31.92975 122.22795 30897 ft 452 kts 331°
2026-04-22 06:49 31.98851 122.20142 30898 ft 452 kts 331°
2026-04-22 06:50 32.04724 122.17473 30914 ft 452 kts 331°
2026-04-22 06:50 32.10552 122.14829 30912 ft 452 kts 331°
2026-04-22 06:51 32.16424 122.12165 30923 ft 452 kts 331°
2026-04-22 06:51 32.22294 122.09491 30920 ft 452 kts 331°
2026-04-22 06:52 32.28160 122.06816 30937 ft 451 kts 331°
2026-04-22 06:52 32.34002 122.04152 30950 ft 455 kts 332°
2026-04-22 06:53 32.39934 122.01464 30935 ft 457 kts 332°
2026-04-22 06:53 32.45877 121.98761 30939 ft 457 kts 331°
2026-04-22 06:54 32.51798 121.96019 30944 ft 457 kts 331°
2026-04-22 06:54 32.57692 121.93312 30946 ft 457 kts 332°
2026-04-22 06:55 32.63634 121.90579 30953 ft 459 kts 332°
2026-04-22 06:55 32.69587 121.87841 30950 ft 459 kts 332°
2026-04-22 06:56 32.75534 121.85086 30957 ft 459 kts 332°
2026-04-22 06:56 32.81493 121.82352 30954 ft 459 kts 332°
2026-04-22 06:57 32.87402 121.79617 30989 ft 457 kts 332°
2026-04-22 06:57 32.93290 121.76901 30968 ft 453 kts 331°
2026-04-22 06:58 32.99157 121.74190 30970 ft 452 kts 331°
2026-04-22 06:58 33.05025 121.71470 30972 ft 452 kts 331°
2026-04-22 06:59 33.10852 121.68761 30974 ft 452 kts 331°
2026-04-22 06:59 33.16707 121.66032 30981 ft 452 kts 331°
2026-04-22 07:00 33.22553 121.63306 30988 ft 451 kts 331°
2026-04-22 07:00 33.28350 121.60464 30995 ft 450 kts 329°
2026-04-22 07:01 33.34093 121.57501 30993 ft 449 kts 329°
2026-04-22 07:01 33.39809 121.54569 31213 ft 451 kts 329°
2026-04-22 07:01 33.42688 121.53083 31431 ft 450 kts 329°
2026-04-22 07:02 33.45554 121.51609 31441 ft 447 kts 329°
2026-04-22 07:02 33.48401 121.50142 31278 ft 446 kts 329°
2026-04-22 07:02 33.51253 121.48671 31069 ft 446 kts 329°
2026-04-22 07:03 33.56952 121.45732 30965 ft 447 kts 329°
2026-04-22 07:03 33.62662 121.42774 30997 ft 447 kts 329°
2026-04-22 07:04 33.68347 121.39881 31021 ft 447 kts 331°
2026-04-22 07:04 33.74131 121.37146 31017 ft 447 kts 331°
2026-04-22 07:05 33.79914 121.34417 31018 ft 447 kts 331°
2026-04-22 07:05 33.85700 121.31686 31017 ft 447 kts 331°
2026-04-22 07:06 33.91445 121.28964 31048 ft 446 kts 330°
2026-04-22 07:06 33.97177 121.26233 31033 ft 443 kts 330°
2026-04-22 07:07 34.02915 121.23494 31044 ft 444 kts 330°
2026-04-22 07:07 34.08635 121.20773 31033 ft 441 kts 330°
2026-04-22 07:08 34.14261 121.18088 31041 ft 441 kts 330°
2026-04-22 07:08 34.19983 121.15344 31054 ft 439 kts 330°
2026-04-22 07:09 34.25685 121.12629 31055 ft 439 kts 330°
2026-04-22 07:09 34.31374 121.09922 31049 ft 439 kts 330°
2026-04-22 07:10 34.37018 121.07215 31053 ft 439 kts 330°
2026-04-22 07:10 34.42700 121.04491 31053 ft 439 kts 330°
2026-04-22 07:11 34.48385 121.01763 31064 ft 439 kts 330°
2026-04-22 07:11 34.54063 120.99019 31060 ft 439 kts 330°
2026-04-22 07:12 34.59752 120.96279 31067 ft 440 kts 330°
2026-04-22 07:12 34.65394 120.93560 31070 ft 439 kts 330°
2026-04-22 07:13 34.71068 120.90800 31068 ft 439 kts 330°
2026-04-22 07:13 34.76741 120.88046 31073 ft 439 kts 330°
2026-04-22 07:14 34.82426 120.85301 31073 ft 439 kts 330°
2026-04-22 07:14 34.88058 120.82556 31076 ft 439 kts 330°
2026-04-22 07:15 34.93726 120.79773 31077 ft 439 kts 330°
2026-04-22 07:15 34.99391 120.76998 31086 ft 439 kts 330°
2026-04-22 07:16 35.05062 120.74230 31086 ft 439 kts 330°
2026-04-22 07:16 35.10694 120.71484 31086 ft 439 kts 330°
2026-04-22 07:17 35.16363 120.68712 31089 ft 439 kts 330°
2026-04-22 07:17 35.22040 120.65957 31105 ft 439 kts 330°
2026-04-22 07:18 35.27711 120.63208 31096 ft 439 kts 330°
2026-04-22 07:18 35.33347 120.60468 31096 ft 439 kts 330°
2026-04-22 07:19 35.39018 120.57708 31100 ft 438 kts 330°
2026-04-22 07:19 35.44693 120.54968 31100 ft 439 kts 330°
2026-04-22 07:20 35.50342 120.52230 31104 ft 436 kts 330°
2026-04-22 07:20 35.55945 120.49502 31104 ft 436 kts 330°
2026-04-22 07:21 35.61590 120.46770 31109 ft 436 kts 330°
2026-04-22 07:21 35.67233 120.44020 31108 ft 436 kts 330°
2026-04-22 07:22 35.72844 120.41278 31128 ft 427 kts 330°
2026-04-22 07:22 35.78345 120.38576 31120 ft 429 kts 330°
2026-04-22 07:23 35.83876 120.35865 31107 ft 428 kts 330°
2026-04-22 07:23 35.89409 120.33137 31115 ft 428 kts 329°
2026-04-22 07:24 35.94972 120.30481 31116 ft 433 kts 334°
2026-04-22 07:24 35.97916 120.29741 31129 ft 445 kts 345°
2026-04-22 07:24 36.01065 120.29793 31118 ft 462 kts 358°
2026-04-22 07:25 36.07432 120.31412 31116 ft 469 kts
2026-04-22 07:25 36.13802 120.33136 31106 ft 468 kts
2026-04-22 07:26 36.20173 120.34793 31116 ft 468 kts
2026-04-22 07:26 36.26500 120.36424 31104 ft 467 kts
2026-04-22 07:27 36.32832 120.38540 31104 ft 475 kts
2026-04-22 07:27 36.39134 120.40969 31112 ft 474 kts
2026-04-22 07:28 36.48591 120.44631 31105 ft 475 kts
2026-04-22 07:28 36.54853 120.47056 31139 ft 475 kts
2026-04-22 07:29 36.61167 120.49640 31114 ft 479 kts
2026-04-22 07:29 36.67482 120.52330 31109 ft 480 kts
2026-04-22 07:30 36.73804 120.55014 31116 ft 480 kts
2026-04-22 07:30 36.80096 120.57688 31110 ft 481 kts
2026-04-22 07:31 36.86441 120.60383 31104 ft 482 kts
2026-04-22 07:31 36.92774 120.63032 31101 ft 473 kts
2026-04-22 07:32 36.99150 120.64399 31099 ft 463 kts 358°
2026-04-22 07:32 37.05481 120.65539 31097 ft 463 kts 358°
2026-04-22 07:33 37.11854 120.66721 31092 ft 463 kts 358°
2026-04-22 07:33 37.18243 120.67915 31100 ft 464 kts 358°
2026-04-22 07:34 37.24634 120.69115 31091 ft 464 kts 358°
2026-04-22 07:34 37.30981 120.70307 31095 ft 464 kts 358°
2026-04-22 07:35 37.37369 120.71512 31097 ft 463 kts 358°
2026-04-22 07:35 37.43748 120.72704 31107 ft 464 kts 358°
2026-04-22 07:36 37.50141 120.73909 31090 ft 465 kts 358°
2026-04-22 07:36 37.56499 120.75111 30906 ft 465 kts 358°
2026-04-22 07:37 37.59692 120.75644 30432 ft 461 kts 355°
2026-04-22 07:37 37.62879 120.76032 29854 ft 460 kts 355°
2026-04-22 07:37 37.66070 120.76408 29184 ft 461 kts 355°
2026-04-22 07:37 37.69265 120.76786 28619 ft 462 kts 356°
2026-04-22 07:38 37.72476 120.77169 28333 ft 465 kts 356°
2026-04-22 07:38 37.75707 120.77549 28045 ft 466 kts 356°
2026-04-22 07:38 37.78926 120.77926 27617 ft 464 kts 356°
2026-04-22 07:38 37.82081 120.78305 27118 ft 460 kts 356°
2026-04-22 07:39 37.85246 120.78686 26601 ft 455 kts 357°
2026-04-22 07:39 37.88379 120.79063 26085 ft 450 kts 357°
2026-04-22 07:39 37.91478 120.79431 25600 ft 445 kts 357°
2026-04-22 07:39 37.94545 120.79799 25098 ft 441 kts 358°
2026-04-22 07:40 37.97583 120.80184 24604 ft 437 kts 360°
2026-04-22 07:40 38.00568 120.80984 24113 ft 442 kts 11°
2026-04-22 07:40 38.03406 120.82537 23640 ft 447 kts 22°
2026-04-22 07:40 38.06086 120.84516 23089 ft 444 kts 25°
2026-04-22 07:41 38.08681 120.86511 22535 ft 439 kts 25°
2026-04-22 07:41 38.11276 120.88500 22010 ft 433 kts 25°
2026-04-22 07:41 38.13849 120.90451 21467 ft 427 kts 25°
2026-04-22 07:41 38.16386 120.92365 20938 ft 422 kts 25°
2026-04-22 07:42 38.18898 120.94250 20413 ft 417 kts 25°
2026-04-22 07:42 38.21377 120.96118 19900 ft 413 kts 26°
2026-04-22 07:42 38.23703 120.98264 19387 ft 415 kts 37°
2026-04-22 07:42 38.25621 121.01019 18894 ft 418 kts 51°
2026-04-22 07:43 38.27010 121.04267 18418 ft 419 kts 62°
2026-04-22 07:43 38.28165 121.07648 17872 ft 414 kts 63°
2026-04-22 07:43 38.29283 121.10991 17316 ft 408 kts 63°
2026-04-22 07:43 38.30386 121.14249 16778 ft 403 kts 63°
2026-04-22 07:44 38.31501 121.17495 16238 ft 397 kts 63°
2026-04-22 07:44 38.32609 121.20696 15706 ft 392 kts 63°
2026-04-22 07:44 38.33702 121.23849 15186 ft 387 kts 63°
2026-04-22 07:44 38.34779 121.26961 14679 ft 382 kts 63°
2026-04-22 07:45 38.35841 121.30030 14174 ft 377 kts 63°
2026-04-22 07:45 38.36889 121.33067 13664 ft 373 kts 63°
2026-04-22 07:45 38.37930 121.36080 13104 ft 369 kts 63°
2026-04-22 07:45 38.38946 121.39020 12558 ft 366 kts 63°
2026-04-22 07:46 38.39965 121.41977 12016 ft 363 kts 64°
2026-04-22 07:46 38.41090 121.44829 11475 ft 357 kts 54°
2026-04-22 07:46 38.42744 121.47119 10950 ft 348 kts 37°
2026-04-22 07:46 38.44721 121.48861 10437 ft 343 kts 30°
2026-04-22 07:47 38.46734 121.50464 9990 ft 339 kts 30°
2026-04-22 07:47 38.48694 121.52043 9804 ft 327 kts 30°
2026-04-22 07:47 38.50563 121.53573 9761 ft 311 kts 31°
2026-04-22 07:47 38.52310 121.55013 9755 ft 295 kts 30°
2026-04-22 07:48 38.53996 121.56408 9761 ft 286 kts 30°
2026-04-22 07:48 38.55666 121.57790 9778 ft 286 kts 30°
2026-04-22 07:48 38.57332 121.59172 9787 ft 286 kts 30°
2026-04-22 07:48 38.59000 121.60559 9792 ft 286 kts 30°
2026-04-22 07:49 38.60715 121.61825 9793 ft 284 kts 24°
2026-04-22 07:49 38.62507 121.62898 9702 ft 284 kts 22°
2026-04-22 07:49 38.64276 121.63929 9419 ft 282 kts 22°
2026-04-22 07:49 38.66064 121.64973 8943 ft 284 kts 22°
2026-04-22 07:50 38.67869 121.66033 8280 ft 286 kts 23°
2026-04-22 07:50 38.69673 121.67098 7617 ft 285 kts 24°
2026-04-22 07:50 38.71466 121.68158 6979 ft 283 kts 24°
2026-04-22 07:50 38.73245 121.69210 6346 ft 281 kts 25°
2026-04-22 07:51 38.75009 121.70255 5680 ft 278 kts 25°
2026-04-22 07:51 38.76760 121.71293 5023 ft 276 kts 25°
2026-04-22 07:51 38.78494 121.72330 4362 ft 274 kts 25°
2026-04-22 07:51 38.80215 121.73357 3703 ft 272 kts 25°
2026-04-22 07:52 38.81913 121.74366 3176 ft 265 kts 25°
2026-04-22 07:52 38.83564 121.75346 2691 ft 258 kts 26°
2026-04-22 07:52 38.85157 121.76271 2172 ft 253 kts 25°
2026-04-22 07:52 38.86752 121.77193 1688 ft 251 kts 24°
2026-04-22 07:53 38.88339 121.78100 1370 ft 248 kts 23°
2026-04-22 07:53 38.89905 121.78984 1093 ft 244 kts 24°
2026-04-22 07:53 38.91213 121.80087 1556 ft 219 kts 51°
2026-04-22 07:53 38.91734 121.81886 2142 ft 221 kts 86°
2026-04-22 07:54 38.91585 121.83863 2706 ft 225 kts 102°
2026-04-22 07:54 38.90994 121.85736 2945 ft 227 kts 120°
2026-04-22 07:54 38.89952 121.87261 2991 ft 230 kts 140°
2026-04-22 07:54 38.88540 121.88228 3005 ft 233 kts 161°
2026-04-22 07:55 38.86952 121.88474 3004 ft 235 kts 180°
2026-04-22 07:55 38.85317 121.88462 2990 ft 234 kts 166°
2026-04-22 07:55 38.83923 121.89419 2975 ft 229 kts 129°
2026-04-22 07:55 38.83279 121.91218 2984 ft 224 kts 92°
2026-04-22 07:56 38.83508 121.93167 3002 ft 223 kts 74°
2026-04-22 07:56 38.83819 121.95116 2999 ft 224 kts 83°
2026-04-22 07:56 38.83860 121.97112 3004 ft 224 kts 90°
2026-04-22 07:56 38.83785 121.99111 2989 ft 224 kts 91°
2026-04-22 07:57 38.83961 122.01056 2992 ft 223 kts 68°
2026-04-22 07:57 38.84810 122.02673 2999 ft 222 kts 41°
2026-04-22 07:57 38.86156 122.03630 2996 ft 224 kts 16°
2026-04-22 07:57 38.87715 122.03711 2998 ft 227 kts 349°
2026-04-22 07:58 38.89144 122.02867 2997 ft 230 kts 322°
2026-04-22 07:58 38.90136 122.01266 3009 ft 233 kts 297°
2026-04-22 07:58 38.90735 121.99324 3014 ft 234 kts 291°
2026-04-22 07:58 38.91293 121.97357 3003 ft 235 kts 292°
2026-04-22 07:59 38.91879 121.95437 2991 ft 234 kts 296°
2026-04-22 07:59 38.92565 121.93540 2995 ft 235 kts 296°
2026-04-22 07:59 38.93153 121.91591 2999 ft 235 kts 290°
2026-04-22 07:59 38.93583 121.89564 2999 ft 236 kts 284°
2026-04-22 08:00 38.93880 121.87493 2989 ft 236 kts 280°
2026-04-22 08:00 38.94100 121.85403 2994 ft 236 kts 279°
2026-04-22 08:00 38.94295 121.83312 2994 ft 236 kts 277°
2026-04-22 08:00 38.94462 121.81221 2988 ft 236 kts 277°
2026-04-22 08:01 38.94623 121.79126 2987 ft 237 kts 277°
2026-04-22 08:01 38.94784 121.77038 2985 ft 239 kts 277°
2026-04-22 08:01 38.94947 121.74920 2986 ft 238 kts 277°
2026-04-22 08:01 38.95109 121.72807 2789 ft 238 kts 277°
2026-04-22 08:02 38.95271 121.70703 2491 ft 236 kts 277°
2026-04-22 08:02 38.95431 121.68614 2170 ft 234 kts 277°
2026-04-22 08:02 38.95589 121.66551 1855 ft 230 kts 278°
2026-04-22 08:02 38.95743 121.64533 1540 ft 225 kts 278°
2026-04-22 08:03 38.95896 121.62535 1236 ft 223 kts 277°
2026-04-22 08:03 38.96047 121.60575 969 ft 215 kts 277°
2026-04-22 08:03 38.96186 121.58760 704 ft 200 kts 276°
2026-04-22 08:03 38.96320 121.57022 401 ft 190 kts 276°
2026-04-22 08:04 38.96442 121.55425 207 ft 166 kts 276°
2026-04-22 08:04 38.96548 121.54105 158 ft 134 kts 275°
2026-04-22 08:04 38.96623 121.53126 155 ft 82 kts 277°
2026-04-22 08:04 38.96663 121.52628 155 ft 45 kts 278°
2026-04-22 08:05 38.96690 121.52237 157 ft 33 kts 279°
2026-04-22 08:05 38.96705 121.52042 156 ft 5 kts 266°
2026-04-22 08:05 38.96687 121.51993 156 ft 8 kts 213°
2026-04-22 08:05 38.96629 121.51971 156 ft 10 kts 189°
2026-04-22 08:06 38.96554 121.51960 156 ft 12 kts 175°
2026-04-22 08:06 38.96507 121.52049 156 ft 14 kts 96°
2026-04-22 08:06 38.96499 121.52183 155 ft 16 kts 94°
2026-04-22 08:06 38.96490 121.52331 155 ft 18 kts 94°
2026-04-22 08:07 38.96480 121.52497 155 ft 19 kts 94°
2026-04-22 08:07 38.96462 121.52671 155 ft 21 kts 92°
2026-04-22 08:07 38.96437 121.52864 155 ft 23 kts 82°
2026-04-22 08:07 38.96433 121.52991 155 ft 0 kts 105°
2026-04-22 08:08 38.96432 121.52993 155 ft 1 kts 105°
2026-04-22 08:08 38.96432 121.53023 155 ft 5 kts 89°
2026-04-22 08:08 38.96429 121.53086 155 ft 9 kts 95°
2026-04-22 08:09 38.96422 121.53182 155 ft 13 kts 97°
2026-04-22 08:09 38.96424 121.53233 155 ft 2 kts 106°
2026-04-22 08:09 38.96404 121.53249 155 ft 5 kts 163°
2026-04-22 08:09 38.96355 121.53254 155 ft 9 kts 182°
2026-04-22 08:10 38.96318 121.53246 155 ft 1 kts 179°
2026-04-22 08:10 38.96297 121.53248 155 ft 5 kts 177°
2026-04-22 08:10 38.96277 121.53247 155 ft 1 kts 185°
2026-04-22 08:10 38.96271 121.53246 155 ft 0 kts 185°